Regional Weather Roundup
Issued by NWS Northern Indiana

Home | Current Version | Previous Version | Text Only | Print | Product List | Glossary Off
Versions: 1 2 3 4 5 6 7 8 9 10 11 12 13 14 15 16 17 18 19 20 21 22 23 24 25 26 27 28 29 30 31 32 33 34 35 36 37 38 39 40 41 42 43 44 45 46 47 48 49 50

000
ASUS43 KIWX 292310
RWRIWX

KIWX WEATHER ROUNDUP
NATIONAL WEATHER SERVICE NORTHERN INDIANA
700 PM EDT FRI JUL 29 2016

NOTE: "FAIR" INDICATES FEW OR NO CLOUDS BELOW 12,000 FEET WITH NO
SIGNIFICANT WEATHER AND/OR OBSTRUCTIONS TO VISIBILITY.

* THESE STATIONS ARE NOT UNDER NWS QUALITY CONTROL. THEY ALSO MAY NOT
  REPORT WEATHER SUCH AS PRECIPITATION OR FOG.

INZ001>027-300000-
NORTHERN INDIANA

CITY           SKY/WX    TMP DP  RH WIND       PRES   REMARKS
GARY*          PTSUNNY   72  70  94 CALM      29.92F
VALPARAISO     CLOUDY    71  65  81 CALM      29.93S
MICHIGAN CITY* CLOUDY    68  68 100 MISG      29.94R
LAPORTE*       CLOUDY    73  73 100 N6        29.93S
KNOX*          CLOUDY    73  63  68 N5        29.91R
SOUTH BEND     CLOUDY    73  68  84 NE6       29.91F
ELKHART*       PTSUNNY   75  66  73 E6        29.92F
GOSHEN         CLOUDY    77  68  73 NE9       29.92S
MONTICELLO*    MOSUNNY   78  66  67 NE7       29.90R
LOGANSPORT*    MOSUNNY   79  68  69 NE6       29.91R
ROCHESTER*     CLOUDY    77  72  83 NE3       29.92R
WARSAW*        CLOUDY    77  70  78 NE7       29.91R
ANGOLA*          N/A     75  70  83 NE7       29.92F
FORT WAYNE     TSTM      72  69  90 S18G28    29.93R FOG
HUNTINGTON*    HVY RAIN  68  67  95 E8G18     29.92F
PERU/GRISSOM   CLOUDY    76  69  78 NE3       29.90R
MARION*        CLOUDY    71  69  93 NE7       29.93R

$$
INZ028>050-300000-
CENTRAL INDIANA

CITY           SKY/WX    TMP DP  RH WIND       PRES   REMARKS
LAFAYETTE      PTSUNNY   81  72  74 NW3       29.89R
KOKOMO*        CLOUDY    75  66  73 SE5       29.92R
MUNCIE*        CLOUDY    80  69  69 NW12G18   29.92R
INDIANAPOLIS   LGT RAIN  78  70  76 S6G17     29.89F

$$
MIZ043>046-050>051-056>058-064>065-071>073-077>080-300000-
SOUTHWEST LOWER MICHIGAN

CITY           SKY/WX    TMP DP  RH WIND       PRES   REMARKS
BATTLE CREEK   CLOUDY    73  65  75 NE9       29.95F
BENTON HARBOR  CLOUDY    75  67  76 NE3       29.93S
COLDWATER*     CLOUDY    76  70  82 NE7       29.93S
HILLSDALE*     CLOUDY    76  65  69 E13G18    29.95R
HOLLAND        CLOUDY    76  63  64 E9        29.96S
GRAND RAPIDS   CLOUDY    74  63  68 NE14      29.98S
KALAMAZOO      MOSUNNY   75  64  68 N10       29.94F
STURGIS*       CLOUDY    75  68  80 NE7       29.92S
THREE RIVERS*  FAIR      77  66  70 NE6       29.93S

$$
OHZ001>008-015>018-024>025-300000-
NORTHWEST OHIO

CITY           SKY/WX    TMP DP  RH WIND       PRES   REMARKS
DEFIANCE       CLOUDY    79  67  66 NE9       29.92S
FINDLAY        CLOUDY    75  67  76 E8        29.92S
TOLEDO EXPRESS CLOUDY    76  72  87 E8        29.92F
TOLEDO METCALF CLOUDY    78  72  81 E13       29.94S
LIMA           CLOUDY    77  74  90 NE5       29.91S

$$
AND FOR LAKE MICHIGAN COASTAL AND OPEN LAKE BUOY OBSERVATIONS

STATION/POSITION TEMP    WIND        PRES    VSBY  WAVE
                 AIR SEA DIR/SP/G                  HT/PER
                 (F)     (DEG/KT/KT) (MB)    (MI)  (FT/S)
CALUMET HARBOR    70                 1013.2R
MICHIGAN CITY     69     120/  4/  5   N/A
BURNS HARBOR      71      20/  3/ 12 1013.9S
SAINT JOSEPH      74     260/  2/  2 1014.9R
SOUTH LAKE BUOY   73 74   60/ 16/ 17 1013.4R         3/ 5
4 MI NW BRIDGMAN  73 76   20/  6/ 10 1013.3S         2
MICHIGAN CITY     71 77  350/  8/ 10   N/A           2/ 5

$$
&&



USA.gov is the U.S. government's official web portal to all federal, state and local government web resources and services.